TimeCDT,TemperatureF,Dew PointF,Humidity,Sea Level PressureIn,VisibilityMPH,Wind Direction,Wind SpeedMPH,Gust SpeedMPH,PrecipitationIn,Events,Conditions,WindDirDegrees,DateUTC
12:15 AM,35.6,27.9,73,30.02,7.0,WNW,5.8,-,N/A,,Overcast,290,2013-10-24 05:15:00
12:35 AM,35.2,28.6,77,30.02,10.0,WNW,4.6,-,N/A,,Overcast,290,2013-10-24 05:35:00
12:55 AM,35.6,27.9,73,30.02,10.0,NW,5.8,-,N/A,,Overcast,310,2013-10-24 05:55:00
1:15 AM,35.6,27.9,73,30.03,10.0,NW,5.8,-,N/A,,Overcast,320,2013-10-24 06:15:00
1:35 AM,35.2,28.4,76,30.03,10.0,WNW,4.6,-,N/A,,Overcast,300,2013-10-24 06:35:00
1:55 AM,34.9,29.1,79,30.03,10.0,WNW,5.8,-,N/A,,Overcast,290,2013-10-24 06:55:00
2:15 AM,34.7,29.1,80,30.03,10.0,WNW,8.1,-,N/A,,Overcast,290,2013-10-24 07:15:00
2:35 AM,34.5,28.8,79,30.03,10.0,WNW,6.9,-,N/A,,Overcast,290,2013-10-24 07:35:00
2:55 AM,34.3,28.2,78,30.03,10.0,WNW,8.1,-,N/A,,Overcast,290,2013-10-24 07:55:00
3:15 AM,33.8,27.5,78,30.04,10.0,WNW,6.9,-,N/A,,Overcast,300,2013-10-24 08:15:00
3:35 AM,33.3,27.0,78,30.04,10.0,NW,5.8,-,N/A,,Overcast,310,2013-10-24 08:35:00
3:55 AM,32.5,26.6,79,30.05,10.0,WNW,4.6,-,N/A,,Overcast,300,2013-10-24 08:55:00
4:15 AM,32.0,26.1,79,30.05,10.0,WNW,5.8,-,N/A,,Overcast,300,2013-10-24 09:15:00
4:35 AM,32.0,25.5,77,30.06,10.0,WNW,6.9,-,N/A,,Overcast,300,2013-10-24 09:35:00
4:55 AM,32.0,25.2,76,30.07,10.0,WNW,6.9,-,N/A,,Overcast,290,2013-10-24 09:55:00
5:15 AM,30.9,25.2,79,30.07,10.0,WNW,6.9,-,N/A,,Scattered Clouds,290,2013-10-24 10:15:00
5:35 AM,29.8,24.8,81,30.08,10.0,West,6.9,-,N/A,,Scattered Clouds,280,2013-10-24 10:35:00
5:55 AM,30.7,25.3,80,30.08,10.0,West,6.9,-,N/A,,Mostly Cloudy,280,2013-10-24 10:55:00
6:15 AM,31.8,25.5,78,30.09,10.0,West,6.9,-,N/A,,Overcast,280,2013-10-24 11:15:00
6:35 AM,32.0,25.5,77,30.09,10.0,WNW,8.1,-,N/A,,Overcast,290,2013-10-24 11:35:00
6:55 AM,32.2,25.2,75,30.10,10.0,WNW,8.1,-,N/A,,Overcast,290,2013-10-24 11:55:00
7:15 AM,32.4,25.2,75,30.10,10.0,WNW,8.1,-,N/A,,Overcast,290,2013-10-24 12:15:00
7:35 AM,32.7,24.8,73,30.11,10.0,WNW,8.1,-,N/A,,Overcast,290,2013-10-24 12:35:00
7:55 AM,33.1,24.8,72,30.11,10.0,WNW,9.2,-,N/A,,Overcast,290,2013-10-24 12:55:00
8:15 AM,33.4,24.6,70,30.12,10.0,West,8.1,-,N/A,,Overcast,280,2013-10-24 13:15:00
8:35 AM,34.0,24.6,69,30.13,10.0,WNW,9.2,-,N/A,,Overcast,300,2013-10-24 13:35:00
8:55 AM,34.9,24.4,66,30.13,10.0,WNW,8.1,-,N/A,,Overcast,300,2013-10-24 13:55:00
9:15 AM,35.6,23.9,62,30.14,10.0,NW,9.2,-,N/A,,Overcast,310,2013-10-24 14:15:00
9:35 AM,36.5,23.9,60,30.15,10.0,WNW,9.2,-,N/A,,Overcast,290,2013-10-24 14:35:00
9:55 AM,37.4,23.7,58,30.16,10.0,WNW,13.8,-,N/A,,Overcast,300,2013-10-24 14:55:00
10:15 AM,37.9,24.4,58,30.16,10.0,NW,12.7,18.4,N/A,,Overcast,310,2013-10-24 15:15:00
10:35 AM,37.4,24.1,59,30.17,10.0,NW,11.5,19.6,N/A,,Overcast,320,2013-10-24 15:35:00
10:55 AM,38.5,25.3,59,30.17,10.0,WNW,11.5,17.3,N/A,,Overcast,300,2013-10-24 15:55:00
11:15 AM,39.6,24.8,56,30.17,10.0,WNW,11.5,-,N/A,,Overcast,300,2013-10-24 16:15:00
11:35 AM,38.8,23.5,54,30.17,10.0,WNW,12.7,18.4,N/A,,Overcast,300,2013-10-24 16:35:00
11:55 AM,40.6,24.1,52,30.18,10.0,NW,9.2,16.1,N/A,,Overcast,320,2013-10-24 16:55:00
11:57 AM,41.0,24.8,53,30.18,10.0,WNW,10.4,16.1,N/A,,Overcast,300,2013-10-24 16:57:00
12:15 PM,40.1,23.5,52,30.18,10.0,WNW,10.4,17.3,N/A,,Overcast,300,2013-10-24 17:15:00
12:35 PM,40.1,24.3,53,30.18,10.0,NW,10.4,18.4,N/A,,Overcast,320,2013-10-24 17:35:00
12:55 PM,40.1,23.9,52,30.18,10.0,WNW,11.5,17.3,N/A,,Overcast,300,2013-10-24 17:55:00
1:15 PM,41.0,24.6,52,30.18,10.0,WNW,10.4,17.3,N/A,,Mostly Cloudy,290,2013-10-24 18:15:00
1:35 PM,43.7,24.6,47,30.18,10.0,WNW,10.4,17.3,N/A,,Mostly Cloudy,290,2013-10-24 18:35:00
1:55 PM,43.2,23.9,47,30.18,10.0,West,12.7,17.3,N/A,,Mostly Cloudy,280,2013-10-24 18:55:00
2:15 PM,41.5,22.8,47,30.18,10.0,NW,11.5,17.3,N/A,,Scattered Clouds,310,2013-10-24 19:15:00
2:35 PM,42.1,22.8,46,30.18,10.0,NW,11.5,17.3,N/A,,Scattered Clouds,310,2013-10-24 19:35:00
2:55 PM,43.9,21.6,41,30.18,10.0,NNW,12.7,19.6,N/A,,Scattered Clouds,340,2013-10-24 19:55:00
3:15 PM,44.2,21.9,41,30.19,10.0,NW,10.4,-,N/A,,Scattered Clouds,310,2013-10-24 20:15:00
3:35 PM,43.7,21.4,41,30.20,10.0,NW,6.9,-,N/A,,Scattered Clouds,310,2013-10-24 20:35:00
3:55 PM,42.1,21.0,43,30.20,10.0,NNW,9.2,-,N/A,,Scattered Clouds,330,2013-10-24 20:55:00
4:15 PM,45.0,20.7,38,30.20,10.0,NW,12.7,17.3,N/A,,Scattered Clouds,310,2013-10-24 21:15:00
4:35 PM,44.2,21.0,40,30.20,10.0,WNW,13.8,17.3,N/A,,Scattered Clouds,300,2013-10-24 21:35:00
4:55 PM,42.8,20.3,41,30.20,10.0,WNW,12.7,-,N/A,,Mostly Cloudy,300,2013-10-24 21:55:00
5:15 PM,41.5,22.1,46,30.21,10.0,WNW,9.2,-,N/A,,Mostly Cloudy,290,2013-10-24 22:15:00
5:35 PM,41.9,21.6,44,30.22,10.0,WNW,10.4,-,N/A,,Overcast,290,2013-10-24 22:35:00
5:55 PM,41.4,21.6,45,30.22,10.0,WNW,10.4,-,N/A,,Overcast,290,2013-10-24 22:55:00
6:15 PM,39.9,22.5,50,30.23,10.0,WNW,6.9,-,N/A,,Overcast,290,2013-10-24 23:15:00
6:35 PM,39.9,21.6,48,30.23,10.0,WNW,8.1,-,N/A,,Overcast,300,2013-10-24 23:35:00
6:55 PM,37.6,22.1,54,30.24,10.0,WNW,5.8,-,N/A,,Mostly Cloudy,290,2013-10-24 23:55:00
7:15 PM,36.1,22.6,58,30.25,10.0,West,6.9,-,N/A,,Scattered Clouds,280,2013-10-25 00:15:00
7:35 PM,35.6,22.1,58,30.25,10.0,West,5.8,-,N/A,,Clear,260,2013-10-25 00:35:00
7:55 PM,34.5,22.8,62,30.25,10.0,West,4.6,-,N/A,,Clear,280,2013-10-25 00:55:00
8:15 PM,34.3,22.6,62,30.26,10.0,West,4.6,-,N/A,,Clear,280,2013-10-25 01:15:00
8:35 PM,33.1,22.1,64,30.26,10.0,West,5.8,-,N/A,,Clear,280,2013-10-25 01:35:00
8:55 PM,33.8,22.3,63,30.26,10.0,West,5.8,-,N/A,,Clear,270,2013-10-25 01:55:00
9:15 PM,33.3,22.8,66,30.27,10.0,West,5.8,-,N/A,,Mostly Cloudy,270,2013-10-25 02:15:00
9:35 PM,34.2,23.4,65,30.27,10.0,West,4.6,-,N/A,,Overcast,270,2013-10-25 02:35:00
9:55 PM,34.5,24.1,66,30.28,10.0,West,5.8,-,N/A,,Overcast,270,2013-10-25 02:55:00
10:15 PM,35.1,24.4,65,30.28,10.0,West,6.9,-,N/A,,Overcast,270,2013-10-25 03:15:00
10:35 PM,36.0,24.4,63,30.28,10.0,West,6.9,-,N/A,,Overcast,280,2013-10-25 03:35:00
10:55 PM,36.1,24.3,62,30.28,10.0,West,8.1,-,N/A,,Overcast,270,2013-10-25 03:55:00
11:15 PM,34.7,23.9,65,30.28,10.0,West,6.9,-,N/A,,Overcast,270,2013-10-25 04:15:00
11:35 PM,32.9,23.5,68,30.29,10.0,West,8.1,-,N/A,,Scattered Clouds,270,2013-10-25 04:35:00
11:55 PM,31.8,23.2,70,30.29,10.0,West,6.9,-,N/A,,Clear,270,2013-10-25 04:55:00